DW5735 Weather Reports


Display with metric or nautical units.
time (UTC)temp
F
wind
direction
speed
MPH
gust
MPH
rain 1hr
in
rain 24hr
in
rain mn
in
humidity
%
barometer
mb
20260906100321 56 100 0.0 0.0 0.00 0.00 0.00 79 1018.1
20260906095831 56 74 0.0 0.0 0.00 0.00 0.00 78 1018.1
20260906095338 56 75 0.0 0.0 0.00 0.00 0.00 77 1018.0
20260906094827 56 76 0.0 0.0 0.00 0.00 0.00 77 1018.0
20260906094502 56 76 0.0 0.0 0.00 0.00 0.00 76 1017.5
20260906094326 56 76 0.0 0.0 0.00 0.00 0.00 76 1018.1
20260906093827 56 77 0.0 0.0 0.00 0.00 0.00 76 1018.1
20260906093332 57 76 0.0 0.0 0.00 0.00 0.00 76 1018.1
20260906093001 56 77 0.0 0.0 0.00 0.00 0.00 75 1017.5
20260906092822 57 77 0.0 0.0 0.00 0.00 0.00 75 1018.1
20260906092336 57 86 0.0 0.0 0.00 0.00 0.00 75 1018.1
20260906091600 56 36 0.0 0.0 0.00 0.00 0.00 76 1017.6
20260906091337 57 37 0.0 0.0 0.00 0.00 0.00 76 1018.1
20260906090840 57 36 0.0 0.0 0.00 0.00 0.00 76 1018.2
20260906090356 58 60 0.0 0.0 0.00 0.00 0.00 76 1018.2
20260906090109 58 61 0.0 0.0 0.00 0.00 0.00 76 1017.7
20260906085833 58 95 0.0 0.0 0.00 0.00 0.00 77 1018.2
20260906085352 58 53 0.0 0.0 0.00 0.00 0.00 76 1018.1
20260906084832 57 30 0.0 0.0 0.00 0.00 0.00 75 1018.3
20260906084607 57 87 0.0 0.0 0.00 0.00 0.00 74 1017.8
20260906084339 57 89 0.0 0.0 0.00 0.00 0.00 74 1018.3
20260906083826 57 63 0.0 0.0 0.00 0.00 0.00 74 1018.3
20260906083325 58 105 0.0 0.0 0.00 0.00 0.00 73 1018.3
20260906083107 57 103 0.0 0.0 0.00 0.00 0.00 73 1017.8
20260906082821 58 91 0.0 0.0 0.00 0.00 0.00 73 1018.4
20260906082335 58 68 0.0 0.0 0.00 0.00 0.00 71 1018.4
20260906081821 58 56 0.0 0.0 0.00 0.00 0.00 71 1018.4
20260906081530 58 71 0.0 0.0 0.00 0.00 0.00 71 1017.8
20260906081339 58 71 0.0 0.0 0.00 0.00 0.00 71 1018.4
20260906080834 58 70 0.0 0.0 0.00 0.00 0.00 71 1018.5
20260906080356 58 70 0.0 0.0 0.00 0.00 0.00 72 1018.4
20260906080115 57 71 0.0 0.0 0.00 0.00 0.00 72 1017.9
20260906075837 58 82 0.0 0.0 0.00 0.00 0.00 73 1018.4
20260906075335 58 86 0.0 0.0 0.00 0.00 0.00 73 1018.5
20260906074826 58 91 0.0 0.0 0.00 0.00 0.00 73 1018.4
20260906074623 58 91 0.0 0.0 0.00 0.00 0.00 73 1017.9
20260906074335 58 90 0.0 0.0 0.00 0.00 0.00 73 1018.5
20260906073833 59 37 0.0 0.0 0.00 0.00 0.00 72 1018.5
20260906073320 59 49 0.0 0.0 0.00 0.00 0.00 73 1018.6
20260906073102 58 86 0.0 0.0 0.00 0.00 0.00 73 1018.1
20260906072838 59 86 0.0 0.0 0.00 0.00 0.00 71 1018.6
20260906072342 59 62 0.0 0.0 0.00 0.00 0.00 71 1018.6
20260906071828 59 65 0.0 0.0 0.00 0.00 0.00 71 1018.5
20260906071604 59 86 0.0 0.0 0.00 0.00 0.00 71 1017.9
20260906071358 59 97 0.0 0.0 0.00 0.00 0.00 70 1018.5
20260906070821 59 85 0.0 0.0 0.00 0.00 0.00 70 1018.5
20260906070318 59 44 0.0 0.0 0.00 0.00 0.00 71 1018.5
20260906070119 58 44 0.0 0.0 0.00 0.00 0.00 71 1017.9
20260906065839 59 44 0.0 0.0 0.00 0.00 0.00 70 1018.5
20260906065331 59 44 0.0 0.0 0.00 0.00 0.00 70 1018.5
20260906064833 60 44 0.0 0.0 0.00 0.00 0.00 69 1018.4
20260906064600 59 42 0.0 0.0 0.00 0.00 0.00 69 1017.9
20260906064319 60 42 0.0 0.0 0.00 0.00 0.00 70 1018.5
20260906063910 60 95 0.0 0.0 0.00 0.00 0.00 68 1018.5
20260906063331 60 100 0.0 0.0 0.00 0.00 0.00 67 1018.5
20260906063113 60 91 0.0 0.0 0.00 0.00 0.00 67 1018.0
20260906062848 60 97 0.0 0.0 0.00 0.00 0.00 67 1018.5
20260906062346 60 108 0.0 0.0 0.00 0.00 0.00 66 1018.5
20260906061823 60 101 0.0 0.0 0.00 0.00 0.00 66 1018.4
20260906061610 60 101 0.0 0.0 0.00 0.00 0.00 67 1017.8
20260906061321 60 62 0.0 1.0 0.00 0.00 0.00 67 1018.3
20260906060825 60 89 0.0 1.0 0.00 0.00 0.00 68 1018.4
20260906060322 60 101 0.0 0.0 0.00 0.00 0.00 68 1018.3
20260906060114 59 101 0.0 0.0 0.00 0.00 0.00 68 1017.8
20260906055820 59 86 0.0 0.0 0.00 0.00 0.00 68 1018.3
20260906054845 60 43 0.0 0.0 0.00 0.00 0.00 68 1018.4
20260906054606 59 43 0.0 0.0 0.00 0.00 0.00 67 1017.8
20260906054325 60 43 0.0 0.0 0.00 0.00 0.00 67 1018.4
20260906053821 59 50 0.0 0.0 0.00 0.00 0.00 69 1018.4
20260906053347 59 79 0.0 0.0 0.00 0.00 0.00 68 1018.4
20260906052839 59 82 0.0 0.0 0.00 0.00 0.00 68 1018.4
20260906052341 59 76 0.0 0.0 0.00 0.00 0.00 68 1018.4
20260906051606 59 64 0.0 0.0 0.00 0.00 0.00 68 1017.8
20260906051329 60 63 0.0 0.0 0.00 0.00 0.00 67 1018.4
20260906050819 60 93 0.0 0.0 0.00 0.00 0.00 68 1018.3
20260906050338 60 97 0.0 0.0 0.00 0.00 0.00 69 1018.4
20260906050124 59 82 0.0 0.0 0.00 0.00 0.00 70 1017.8
20260906045827 60 83 0.0 0.0 0.00 0.00 0.00 71 1018.4
20260906045329 60 91 0.0 0.0 0.00 0.00 0.00 71 1018.3
20260906044857 60 162 0.0 0.0 0.00 0.00 0.00 72 1018.2
20260906044614 59 160 0.0 0.0 0.00 0.00 0.00 72 1017.7
20260906044316 60 113 0.0 0.0 0.00 0.00 0.00 72 1018.2
20260906043816 59 111 0.0 0.0 0.00 0.00 0.00 71 1018.2
20260906043332 59 208 0.0 0.0 0.00 0.00 0.00 72 1018.1
20260906043147 59 208 0.0 0.0 0.00 0.00 0.00 72 1017.6
20260906042822 59 208 0.0 0.0 0.00 0.00 0.00 71 1018.1
20260906042332 59 145 0.0 0.0 0.00 0.00 0.00 71 1018.0
20260906041817 59 146 0.0 0.0 0.00 0.00 0.00 72 1018.0
20260906041556 59 83 0.0 0.0 0.00 0.00 0.00 73 1017.4
20260906041317 59 84 0.0 0.0 0.00 0.00 0.00 73 1017.9
20260906040835 60 87 0.0 0.0 0.00 0.00 0.00 73 1017.9
20260906040332 60 87 0.0 0.0 0.00 0.00 0.00 74 1017.8
20260906040115 59 87 0.0 0.0 0.00 0.00 0.00 74 1017.2
20260906035836 60 88 0.0 0.0 0.00 0.00 0.00 74 1017.8
20260906035319 60 34 0.0 0.0 0.00 0.00 0.00 75 1017.7
20260906034816 60 82 0.0 0.0 0.00 0.00 0.00 73 1017.6
20260906034507 60 103 0.0 0.0 0.00 0.00 0.00 70 1017.0
20260906034330 60 91 0.0 0.0 0.00 0.00 0.00 70 1017.6
20260906033837 61 68 0.0 0.0 0.00 0.00 0.00 72 1017.6
20260906033336 61 113 0.0 0.0 0.00 0.00 0.00 70 1017.6
20260906033120 61 113 0.0 0.0 0.00 0.00 0.00 69 1017.0
20260906032850 61 113 0.0 0.0 0.00 0.00 0.00 68 1017.5
20260906032338 61 90 0.0 0.0 0.00 0.00 0.00 69 1017.4
20260906031851 61 90 0.0 0.0 0.00 0.00 0.00 70 1017.4
20260906031348 62 82 0.0 0.0 0.00 0.00 0.00 73 1017.4
20260906030838 62 21 0.0 0.0 0.00 0.00 0.00 68 1017.4
20260906030337 62 95 0.0 0.0 0.00 0.00 0.00 68 1017.3
20260906030113 62 95 0.0 0.0 0.00 0.00 0.00 67 1016.7
20260906025822 62 94 0.0 0.0 0.00 0.00 0.00 67 1017.1
20260906025337 63 94 0.0 0.0 0.00 0.00 0.00 67 1017.1
20260906024857 63 91 0.0 0.0 0.00 0.00 0.00 67 1017.1
20260906024507 63 92 0.0 0.0 0.00 0.00 0.00 67 1016.6
20260906024329 63 91 0.0 0.0 0.00 0.00 0.00 67 1017.2
20260906023837 64 122 0.0 0.0 0.00 0.00 0.00 65 1017.0
20260906023322 64 122 0.0 0.0 0.00 0.00 0.00 64 1017.0
20260906023059 64 127 0.0 0.0 0.00 0.00 0.00 64 1016.4
20260906022831 65 128 0.0 0.0 0.00 0.00 0.00 63 1017.1
20260906022331 66 129 0.0 0.0 0.00 0.00 0.00 61 1017.1
20260906021824 66 123 0.0 0.0 0.00 0.00 0.00 59 1017.2
20260906021611 66 138 0.0 0.0 0.00 0.00 0.00 58 1016.5
20260906021350 67 156 0.0 0.0 0.00 0.00 0.00 58 1017.0
20260906020819 68 158 0.0 0.0 0.00 0.00 0.00 56 1017.0
20260906020330 68 163 0.0 0.0 0.00 0.00 0.00 56 1016.9
20260906020104 68 159 0.0 0.0 0.00 0.00 0.00 56 1016.4
20260906015821 68 159 0.0 0.0 0.00 0.00 0.00 56 1016.8
20260906015354 68 103 0.0 0.0 0.00 0.00 0.00 55 1016.8
20260906014502 67 32 0.0 0.0 0.00 0.00 0.00 56 1016.2
20260906014319 68 32 0.0 0.0 0.00 0.00 0.00 55 1016.8
20260906013830 68 37 0.0 0.0 0.00 0.00 0.00 59 1016.7
20260906013331 68 34 0.0 0.0 0.00 0.00 0.00 58 1016.8
20260906013011 67 37 0.0 0.0 0.00 0.00 0.00 60 1016.2
20260906012826 68 42 0.0 0.0 0.00 0.00 0.00 61 1016.7
20260906012319 68 26 0.0 0.0 0.00 0.00 0.00 59 1016.6
20260906011858 68 22 0.0 0.0 0.00 0.00 0.00 56 1016.6
20260906011614 67 23 0.0 0.0 0.00 0.00 0.00 58 1016.0
20260906011322 68 20 0.0 0.0 0.00 0.00 0.00 56 1016.6
20260906010825 69 27 0.0 0.0 0.00 0.00 0.00 57 1016.6
20260906010338 69 335 0.0 0.0 0.00 0.00 0.00 54 1016.6
20260906005851 69 276 0.0 0.0 0.00 0.00 0.00 55 1016.6
20260906005335 68 277 0.0 0.0 0.00 0.00 0.00 58 1016.7
20260906004830 68 276 0.0 0.0 0.00 0.00 0.00 58 1016.7
20260906004516 67 273 0.0 0.0 0.00 0.00 0.00 58 1016.1
20260906004335 68 257 0.0 0.0 0.00 0.00 0.00 58 1016.6
20260906003831 67 257 0.0 0.0 0.00 0.00 0.00 59 1016.7
20260906003317 67 253 0.0 0.0 0.00 0.00 0.00 59 1016.6
20260906003105 66 252 0.0 0.0 0.00 0.00 0.00 59 1016.0
20260906002859 67 246 0.0 0.0 0.00 0.00 0.00 59 1016.6
20260906002322 67 262 0.0 0.0 0.00 0.00 0.00 58 1016.4
20260906001840 67 249 0.0 0.0 0.00 0.00 0.00 58 1016.5
20260906001615 66 245 0.0 0.0 0.00 0.00 0.00 58 1015.9
20260906001355 67 246 0.0 0.0 0.00 0.00 0.00 59 1016.5
20260906000857 67 242 0.0 0.0 0.00 0.00 0.00 58 1016.6
20260906000333 67 240 0.0 0.0 0.00 0.00 0.00 60 1016.7
20260906000104 66 231 0.0 0.0 0.00 0.00 0.00 61 1016.1
20260905235821 67 232 0.0 0.0 0.00 0.00 0.00 59 1016.6
20260905235343 67 231 0.0 5.0 0.00 0.00 0.00 59 1016.7
20260905234845 67 239 0.0 7.0 0.00 0.00 0.00 61 1016.8
20260905234515 67 239 2.0 7.0 0.00 0.00 0.00 62 1016.3
20260905234337 68 222 3.0 7.0 0.00 0.00 0.00 63 1016.8
20260905233828 68 232 2.0 6.0 0.00 0.00 0.00 61 1016.8
20260905233319 68 224 0.0 0.0 0.00 0.00 0.00 57 1016.8
20260905233100 68 238 0.0 0.0 0.00 0.00 0.00 58 1016.3
20260905232819 68 236 0.0 0.0 0.00 0.00 0.00 58 1016.8
20260905232335 69 221 0.0 0.0 0.00 0.00 0.00 57 1016.7
20260905231849 69 249 0.0 0.0 0.00 0.00 0.00 57 1016.7
20260905231554 68 247 0.0 0.0 0.00 0.00 0.00 56 1016.2
20260905231337 69 248 0.0 0.0 0.00 0.00 0.00 58 1016.9
20260905230828 68 248 0.0 0.0 0.00 0.00 0.00 58 1016.9
20260905230336 68 250 0.0 0.0 0.00 0.00 0.00 60 1016.8
20260905230001 68 260 0.0 0.0 0.00 0.00 0.00 60 1016.2
20260905225825 69 263 0.0 0.0 0.00 0.00 0.00 59 1016.7
20260905225329 69 253 0.0 0.0 0.00 0.00 0.00 55 1016.8
20260905224825 69 256 0.0 0.0 0.00 0.00 0.00 57 1016.8
20260905224628 68 255 0.0 0.0 0.00 0.00 0.00 57 1016.3
20260905224321 68 255 0.0 0.0 0.00 0.00 0.00 59 1016.8
20260905223837 68 247 0.0 0.0 0.00 0.00 0.00 60 1016.8
20260905223322 67 228 0.0 0.0 0.00 0.00 0.00 62 1017.0
20260905223058 67 232 0.0 0.0 0.00 0.00 0.00 60 1016.5
20260905222828 67 231 0.0 0.0 0.00 0.00 0.00 60 1017.0
20260905222333 66 226 0.0 0.0 0.00 0.00 0.00 60 1016.9
20260905221821 66 231 0.0 0.0 0.00 0.00 0.00 61 1017.0
20260905221615 66 251 0.0 0.0 0.00 0.00 0.00 60 1016.5
20260905221354 66 269 0.0 0.0 0.00 0.00 0.00 61 1017.0
20260905220843 66 276 0.0 0.0 0.00 0.00 0.00 61 1017.1
20260905220320 66 236 0.0 0.0 0.00 0.00 0.00 66 1017.2
20260905220115 65 238 0.0 0.0 0.00 0.00 0.00 65 1016.7
20260905215835 65 257 0.0 0.0 0.00 0.00 0.00 64 1017.3
20260905215321 65 249 0.0 0.0 0.00 0.00 0.00 65 1017.3
20260905214825 65 262 0.0 4.0 0.00 0.00 0.00 65 1017.3
20260905213839 65 269 3.0 5.0 0.00 0.00 0.00 64 1017.3
20260905213337 65 287 1.0 4.0 0.00 0.00 0.00 65 1017.3
20260905213001 65 277 0.0 4.0 0.00 0.00 0.00 62 1016.9
20260905212824 66 288 0.0 0.0 0.00 0.00 0.00 61 1017.4
20260905212350 65 338 0.0 0.0 0.00 0.00 0.00 64 1017.6
20260905211820 64 294 0.0 0.0 0.00 0.00 0.00 66 1017.5
20260905211631 64 287 0.0 0.0 0.00 0.00 0.00 67 1017.0
20260905211326 64 288 0.0 0.0 0.00 0.00 0.00 66 1017.6
20260905210848 64 231 0.0 0.0 0.00 0.00 0.00 67 1017.6
20260905210340 64 256 0.0 0.0 0.00 0.00 0.00 67 1017.6
20260905210006 63 252 0.0 0.0 0.00 0.00 0.00 67 1017.4
20260905205826 64 231 0.0 0.0 0.00 0.00 0.00 69 1017.9
20260905205322 64 270 0.0 5.0 0.00 0.00 0.00 69 1017.8
20260905204819 64 253 0.0 0.0 0.00 0.00 0.00 67 1018.0
20260905204608 64 257 0.0 0.0 0.00 0.00 0.00 63 1017.4
20260905203850 64 301 0.0 0.0 0.00 0.00 0.00 65 1017.8
20260905203352 64 295 0.0 0.0 0.00 0.00 0.00 67 1017.9
20260905203120 63 276 0.0 6.0 0.00 0.00 0.00 67 1017.5
20260905202852 63 264 0.0 6.0 0.00 0.00 0.00 65 1018.0
20260905202324 64 311 0.0 1.0 0.00 0.00 0.00 66 1018.0
20260905201823 64 249 0.0 0.0 0.00 0.00 0.00 66 1018.1
20260905201607 64 239 0.0 0.0 0.00 0.00 0.00 66 1017.7
20260905201317 64 196 0.0 0.0 0.00 0.00 0.00 62 1018.2
20260905200818 64 81 0.0 0.0 0.00 0.00 0.00 63 1018.3
20260905200318 64 61 0.0 0.0 0.00 0.00 0.00 64 1018.2
20260905200021 63 34 0.0 0.0 0.00 0.00 0.00 64 1017.8
20260905195843 64 110 0.0 0.0 0.00 0.00 0.00 65 1018.3
20260905195317 63 155 0.0 0.0 0.00 0.00 0.00 67 1018.2
20260905194836 63 226 0.0 0.0 0.00 0.00 0.00 67 1018.4
20260905194502 63 256 0.0 0.0 0.00 0.00 0.00 69 1017.9
20260905194322 63 262 0.0 0.0 0.00 0.00 0.00 68 1018.4
20260905193824 63 276 0.0 0.0 0.00 0.00 0.00 68 1018.4
20260905193321 63 282 0.0 0.0 0.00 0.00 0.00 65 1018.5
20260905193156 63 283 0.0 0.0 0.00 0.00 0.00 65 1018.1
20260905192835 63 306 0.0 0.0 0.00 0.00 0.00 64 1018.5
20260905192316 63 193 0.0 0.0 0.00 0.00 0.00 65 1018.6
20260905191626 63 221 0.0 0.0 0.00 0.00 0.00 65 1018.4
20260905191342 63 271 0.0 0.0 0.00 0.00 0.00 68 1018.7
20260905190825 62 226 0.0 0.0 0.00 0.00 0.00 70 1018.8
20260905190340 62 246 0.0 0.0 0.00 0.00 0.00 68 1018.9
20260905190105 61 263 0.0 0.0 0.00 0.00 0.00 67 1018.6
20260905185848 62 293 0.0 0.0 0.00 0.00 0.00 67 1018.9
20260905185339 62 280 0.0 0.0 0.00 0.00 0.00 68 1019.0
20260905184819 61 288 0.0 0.0 0.00 0.00 0.00 68 1019.0
20260905184602 60 281 0.0 0.0 0.00 0.00 0.00 69 1018.8
20260905184321 61 255 0.0 3.0 0.00 0.00 0.00 70 1019.1
20260905183828 61 294 0.0 3.0 0.00 0.00 0.00 69 1019.3
20260905183348 60 339 0.0 2.0 0.00 0.00 0.00 69 1019.3
20260905183106 60 11 0.0 0.0 0.00 0.00 0.00 70 1019.0
20260905182821 60 356 0.0 0.0 0.00 0.00 0.00 72 1019.4
20260905182330 60 255 0.0 0.0 0.00 0.00 0.00 71 1019.5
20260905181832 60 264 0.0 0.0 0.00 0.00 0.00 71 1019.6
20260905181613 59 291 0.0 0.0 0.00 0.00 0.00 72 1019.2
20260905181332 60 283 0.0 5.0 0.00 0.00 0.00 74 1019.6
20260905180825 60 295 0.0 5.0 0.00 0.00 0.00 73 1019.7
20260905180355 60 293 0.0 0.0 0.00 0.00 0.00 74 1019.7
20260905175832 60 284 0.0 1.0 0.00 0.00 0.00 73 1019.7
20260905174848 60 43 0.0 1.0 0.00 0.00 0.00 71 1019.8
20260905174606 59 73 0.0 1.0 0.00 0.00 0.00 72 1019.4
20260905174333 60 25 0.0 1.0 0.00 0.00 0.00 73 1019.8
20260905173900 59 98 0.0 0.0 0.00 0.00 0.00 76 1019.9
20260905173348 59 51 0.0 0.0 0.00 0.00 0.00 76 1020.1
20260905173103 58 75 0.0 0.0 0.00 0.00 0.00 76 1019.7
20260905172818 58 74 0.0 0.0 0.00 0.00 0.00 76 1020.1
20260905172331 58 61 0.0 1.0 0.00 0.00 0.00 77 1019.9
20260905171816 58 56 0.0 0.0 0.00 0.00 0.00 78 1020.0
20260905171344 58 56 0.0 0.0 0.00 0.00 0.00 79 1020.2
20260905170819 57 23 0.0 0.0 0.00 0.00 0.00 81 1020.1
20260905170346 57 34 0.0 0.0 0.00 0.00 0.00 81 1020.1
20260905170114 56 34 0.0 0.0 0.00 0.00 0.00 80 1019.8
20260905165820 57 43 0.0 0.0 0.00 0.00 0.00 81 1020.2
20260905165329 57 25 0.0 0.0 0.00 0.00 0.00 81 1020.1
20260905164819 56 73 0.0 0.0 0.00 0.00 0.00 82 1020.1
20260905164603 56 56 0.0 0.0 0.00 0.00 0.00 82 1019.8
20260905164323 56 41 0.0 0.0 0.00 0.00 0.00 83 1020.1
20260905163834 56 50 0.0 6.0 0.00 0.00 0.00 83 1020.1
20260905163348 56 36 4.0 6.0 0.00 0.00 0.00 83 1020.1
20260905163108 56 20 3.0 6.0 0.00 0.00 0.00 83 1019.7
20260905162829 56 37 4.0 6.0 0.00 0.00 0.00 83 1020.1
20260905162355 56 48 0.0 6.0 0.00 0.00 0.00 81 1020.1
20260905161825 56 46 0.0 0.0 0.00 0.00 0.00 82 1020.1
20260905161607 55 63 0.0 0.0 0.00 0.00 0.00 82 1019.7
20260905161353 56 27 0.0 0.0 0.00 0.00 0.00 81 1020.1
20260905160818 56 64 0.0 0.0 0.00 0.00 0.00 80 1020.1
20260905160340 55 101 0.0 0.0 0.00 0.00 0.00 81 1020.1
20260905160012 55 43 0.0 0.0 0.00 0.00 0.00 81 1019.7
20260905155830 55 49 0.0 0.0 0.00 0.00 0.00 81 1020.0
20260905155336 55 44 0.0 0.0 0.00 0.00 0.00 81 1020.1
20260905154832 55 48 0.0 0.0 0.00 0.00 0.00 83 1020.1
20260905154501 54 90 0.0 0.0 0.00 0.00 0.00 83 1019.8
20260905154326 55 63 0.0 0.0 0.00 0.00 0.00 84 1020.1
20260905153829 55 77 0.0 0.0 0.00 0.00 0.00 83 1020.1
20260905153350 55 43 0.0 0.0 0.00 0.00 0.00 83 1020.1
20260905153125 54 79 0.0 0.0 0.00 0.00 0.00 84 1019.8
20260905152829 55 79 0.0 0.0 0.00 0.00 0.00 84 1020.2
20260905152327 55 72 0.0 0.0 0.00 0.00 0.00 84 1020.1
20260905151824 54 86 0.0 0.0 0.00 0.00 0.00 86 1020.1
20260905151607 54 80 0.0 0.0 0.00 0.00 0.00 86 1019.7
20260905151339 54 62 0.0 0.0 0.00 0.00 0.00 86 1020.1
20260905150827 54 39 0.0 0.0 0.00 0.00 0.00 85 1020.1
20260905150334 54 49 0.0 0.0 0.00 0.00 0.00 86 1020.1
20260905145847 54 36 0.0 0.0 0.00 0.00 0.00 87 1020.1
20260905145348 53 74 0.0 0.0 0.00 0.00 0.00 87 1020.1
20260905144842 53 65 0.0 0.0 0.00 0.00 0.00 87 1020.0
20260905144553 53 70 0.0 0.0 0.00 0.00 0.00 87 1019.7
20260905144330 53 70 0.0 0.0 0.00 0.00 0.00 87 1020.0
20260905143820 53 70 0.0 0.0 0.00 0.00 0.00 88 1020.1
20260905143323 53 105 0.0 0.0 0.00 0.00 0.00 87 1020.1
20260905143055 52 97 0.0 0.0 0.00 0.00 0.00 87 1019.8
20260905142834 53 91 0.0 0.0 0.00 0.00 0.00 87 1020.0
20260905142330 53 97 0.0 0.0 0.00 0.00 0.00 88 1020.0
20260905141827 53 75 0.0 0.0 0.00 0.00 0.00 88 1020.0
20260905141516 52 86 0.0 0.0 0.00 0.00 0.00 88 1019.6
20260905141341 53 89 0.0 0.0 0.00 0.00 0.00 88 1020.0
20260905140816 52 59 0.0 0.0 0.00 0.00 0.00 88 1020.1
20260905140340 52 94 0.0 0.0 0.00 0.00 0.00 87 1020.1
20260905140055 52 98 0.0 0.0 0.00 0.00 0.00 87 1019.7
20260905135833 52 98 0.0 0.0 0.00 0.00 0.00 87 1020.1
20260905135352 53 58 0.0 0.0 0.00 0.00 0.00 87 1020.1
20260905134857 53 68 0.0 0.0 0.00 0.00 0.00 87 1020.0
20260905134622 52 68 0.0 0.0 0.00 0.00 0.00 88 1019.7
20260905134335 53 56 0.0 0.0 0.00 0.00 0.00 88 1019.9
20260905133827 53 36 0.0 0.0 0.00 0.00 0.00 87 1019.9
20260905133329 53 65 0.0 0.0 0.00 0.00 0.00 87 1019.8
20260905133056 52 86 0.0 0.0 0.00 0.00 0.00 87 1019.5
20260905132827 53 85 0.0 0.0 0.00 0.00 0.00 88 1019.8
20260905132336 52 103 0.0 0.0 0.00 0.00 0.00 88 1019.7
20260905131832 52 90 0.0 0.0 0.00 0.00 0.00 88 1019.7
20260905131607 51 87 0.0 0.0 0.00 0.00 0.00 88 1019.4
20260905131335 52 109 0.0 0.0 0.00 0.00 0.00 88 1019.7
20260905130822 52 51 0.0 0.0 0.00 0.00 0.00 88 1019.7
20260905130323 52 84 0.0 0.0 0.00 0.00 0.00 88 1019.6
20260905125905 52 82 0.0 0.0 0.00 0.00 0.00 88 1019.7
20260905125318 52 90 0.0 0.0 0.00 0.00 0.00 88 1019.7
20260905124820 52 77 0.0 0.0 0.00 0.00 0.00 88 1019.7
20260905124325 52 76 0.0 0.0 0.00 0.00 0.00 88 1019.6
20260905123819 52 52 0.0 0.0 0.00 0.00 0.00 88 1019.6
20260905123345 52 78 0.0 0.0 0.00 0.00 0.00 88 1019.5
20260905123114 51 79 0.0 0.0 0.00 0.00 0.00 88 1019.2
20260905122904 52 78 0.0 0.0 0.00 0.00 0.00 88 1019.5
20260905122336 52 98 0.0 0.0 0.00 0.00 0.00 89 1019.4
20260905121838 52 75 0.0 0.0 0.00 0.00 0.00 88 1019.4
20260905121604 51 70 0.0 0.0 0.00 0.00 0.00 88 1019.1
20260905121326 51 94 0.0 0.0 0.00 0.00 0.00 89 1019.4
20260905120845 51 87 0.0 0.0 0.00 0.00 0.00 89 1019.4
20260905120318 51 102 0.0 0.0 0.00 0.00 0.00 88 1019.4
20260905120117 51 104 0.0 0.0 0.00 0.00 0.00 88 1019.1
20260905115848 52 99 0.0 0.0 0.00 0.00 0.00 89 1019.3
20260905115342 52 103 0.0 0.0 0.00 0.00 0.00 88 1019.3
20260905114830 52 91 0.0 0.0 0.00 0.00 0.00 88 1019.2
20260905114601 51 78 0.0 0.0 0.00 0.00 0.00 88 1019.0
20260905114338 52 41 0.0 0.0 0.00 0.00 0.00 88 1019.3
20260905113851 52 54 0.0 0.0 0.00 0.00 0.00 88 1019.3
20260905113342 53 27 0.0 0.0 0.00 0.00 0.00 89 1019.2
20260905113101 52 32 0.0 0.0 0.00 0.00 0.00 89 1018.9
20260905112858 52 39 0.0 0.0 0.00 0.00 0.00 88 1019.2
20260905112329 52 34 0.0 0.0 0.00 0.00 0.00 88 1019.1
20260905111839 52 42 0.0 0.0 0.00 0.00 0.00 89 1019.1
20260905111613 52 43 0.0 0.0 0.00 0.00 0.00 89 1018.8
20260905111318 52 56 0.0 0.0 0.00 0.00 0.00 89 1019.0
20260905110859 52 81 0.0 0.0 0.00 0.00 0.00 89 1019.0
20260905110337 52 93 0.0 0.0 0.00 0.00 0.00 89 1018.9
20260905110059 51 91 0.0 0.0 0.00 0.00 0.00 89 1018.7
20260905105837 52 95 0.0 0.0 0.00 0.00 0.00 89 1018.9
20260905105337 51 94 0.0 0.0 0.00 0.00 0.00 90 1018.8
20260905104819 51 95 0.0 0.0 0.00 0.00 0.00 90 1018.8
20260905104553 51 101 0.0 0.0 0.00 0.00 0.00 90 1018.5
20260905104331 51 84 0.0 0.0 0.00 0.00 0.00 90 1018.8
20260905103845 51 93 0.0 0.0 0.00 0.00 0.00 90 1018.8
20260905103333 51 91 0.0 0.0 0.00 0.00 0.00 90 1018.8
20260905102839 51 94 0.0 0.0 0.00 0.00 0.00 90 1018.8
20260905102323 51 79 0.0 0.0 0.00 0.00 0.00 89 1018.8
20260905101817 51 89 0.0 0.0 0.00 0.00 0.00 89 1018.8
20260905101616 51 89 0.0 0.0 0.00 0.00 0.00 89 1018.5
20260905101323 51 87 0.0 0.0 0.00 0.00 0.00 89 1018.8
20260905100818 52 88 0.0 0.0 0.00 0.00 0.00 89 1018.8